Tracking 35331 objects as of 13-Sep-2026
HD Live streaming from Space Station
objects crossing your sky now

STARLINK-4108

Track STARLINK-4108 now!
10-day predictions
STARLINK-4108 is classified as:


NORAD ID: 52834
Int'l Code: 2022-062E
Launch date: June 17, 2022
Source: United States (US)
Launch site: AIR FORCE EASTERN TEST RANGE (AFETR)
Your satellite tracking list
Your tracking list is empty




NASA's NSSDC Master Catalog

Two Line Element Set (TLE):
1 52834U 22062E   26256.43289393  .00000083  00000-0  14433-4 0  9996
2 52834  53.1595 261.7275 0001261  86.6827 273.4319 15.31705338234250
Source of the keplerian elements: AFSPC